Location: Krakow
(50.0830°N, 19.9170°E)
Time: 03:53:40
(UTC+02:00)

Tiros 1 - Pass Details

Date: 15 February 2023
Orbit: 627 x 662 km, 48.4° (Epoch: 25 March)

Event Time Altitude Azimuth Distance (km) Brightness Sun altitude
Rises 20:53:04 0° 248° (WSW) 2,909 11.0 -37.4°
Enters shadow 20:54:26 - 247° (WSW) 2,379 10.4 -37.6°
Reaches altitude 10° 20:55:24 10° 245° (WSW) 2,001 - -37.7°
Maximum altitude 20:59:56 60° 166° (SSE) 719 - -38.3°
Drops below altitude 10° 21:04:28 10° 87° (E) 2,005 - -38.9°
Sets 21:06:48 0° 84° (E) 2,915 - -39.3°
